Regional Weather Roundup
Issued by NWS New Orleans/Baton Rouge, LA

Home | Current Version | Previous Version | Text Only | Print | Product List | Glossary Off
Versions: 1 2 3 4 5 6 7 8 9 10 11 12 13 14 15 16 17 18 19 20 21 22 23 24 25 26 27 28 29 30 31 32 33 34 35 36 37 38 39 40 41 42 43 44 45 46 47 48 49 50

084
ASUS44 KLIX 160101
RWRLIX
NEW ORLEANS REGIONAL WEATHER ROUNDUP
NATIONAL WEATHER SERVICE NEW ORLEANS LA
800 PM CDT MON SEP 15 2014

NOTE: "FAIR" INDICATES FEW OR NO CLOUDS BELOW 12,000 FEET WITH NO
      SIGNIFICANT WEATHER AND/OR OBSTRUCTIONS TO VISIBILITY.
      SKY/WX - SKY CONDITION AND SIGNIFICANT WEATHER.
      TMP - AIR TEMPERATURE.     DP    - DEWPOINT TEMPERATURE.
      RH  - RELATIVE HUMIDITY.   PRES  - PRESSURE.
      HI  - HEAT INDEX.          WCI   - WIND CHILL INDEX.

*  THESE STATIONS ARE NOT NWS OR FAA STATIONS AND ARE NOT UNDER
   NWS QUALITY CONTROL.

LAZ038-040-048-061>063-065>067-069-160200-
SOUTHEAST LOUISIANA

CITY           SKY/WX    TMP DP  RH WIND       PRES   REMARKS
N.O. AUDUBON     N/A     81  76  84 MISG        N/A
N.O. INTL ARPT CLOUDY    79  76  90 S5        30.06S
N.O. LAKEFRONT CLOUDY    81  74  79 S5        30.06S
N.O. DOWNTOWN*   N/A     84  72  65 S3        30.07R
SLIDELL        CLOUDY    81  77  88 CALM      30.06R
BATON ROUGE    MOCLDY    78  74  87 CALM      30.06S
BOOTHVILLE     MOCLDY    82  76  81 SW5       30.06F
BELLE CHASSE   CLOUDY    79  74  84 SW6       30.06R
BOGALUSA*        N/A     83  74  72 SE12      30.09R THUNDER
GALLIANO*      NOT AVBL
NEW ROADS*       N/A     79  71  76 CALM      30.06S
GONZALES*        N/A     76  76 100 CALM      30.06R
HAMMOND*       NOT AVBL
HOUMA*         CLOUDY    77  73  86 CALM      30.06S
PORT FOURCHON* CLEAR     82  75  78 CALM      30.10S

$$

MSZ070-080>082-160200-
SOUTHERN MISSISSIPPI

CITY           SKY/WX    TMP DP  RH WIND       PRES   REMARKS
MCCOMB         MOCLDY    84  72  67 NE3       30.08R
GULFPORT       CLOUDY    84  75  74 CALM      30.06R
BILOXI         MOCLDY    84  75  74 SW3       30.06R
PASCAGOULA     MOCLDY    78  76  93 CALM      30.06R

$$

COASTAL OBSERVATIONS
LAKE AND NEARSHORE STATIONS

STATION/POSITION TIME  TEMP    WIND        PRES    WAVE
                       AIR SEA DIR/SP/G            HT/PER
                 (UTC) (F)     (DEG/KT/KT) (MB)    (FT/S)
PASCAGOULA       0000   85     190/  8/ 10 1017.2
WAVELAND YACHT   0000   84     200/  4/  5 1017.1
GRAND ISLE       0000   83 86  290/  5/  6 1018.8
SOUTHWEST PASS   0000   84 91  170/  3/  5 1018.6
NEW CANAL        0000   82 83  200/  3/  4 1018.0
SHELL BEACH      0000   81 80  190/  4/  4 1017.6

OFFSHORE STATIONS

STATION/POSITION TIME  TEMP    WIND        PRES    WAVE
                       AIR SEA DIR/SP/G            HT/PER
                 (UTC) (F)     (DEG/KT/KT) (MB)    (FT/S)
64 S DAUPHIN ISL 0021   82 86  250/ 10/ 12 1018.4    3/ 7

$$




USA.gov is the U.S. government's official web portal to all federal, state and local government web resources and services.